Location: B?dimalle
(17.1788°N, 80.5377°E)
Time: 09:07:12
(UTC+00:00)

Vanguard 1 - Visible Passes

Search period start: 16 February 2026 00:00
Search period end: 26 February 2026 00:00
Orbit: 652 x 3820 km, 34.3° (Epoch: 13 February)

Date Brightness Start Highest point End Pass type
(mag) Time Alt. Az. Time Alt. Az. Time Alt. Az.
16 Feb 13.1 12:39:34 10° WNW 12:54:52 45° N 13:16:48 10° ENE visible
16 Feb 12.7 15:03:48 10° NW 15:25:09 67° NNE 15:29:23 61° ENE visible
16 Feb 13.4 17:29:42 10° WNW 17:41:58 40° WNW 17:41:58 40° WNW visible
17 Feb 13.0 12:59:35 10° WNW 13:15:45 48° NNE 13:35:15 15° E visible
17 Feb 12.6 15:23:36 10° WNW 15:45:31 76° NNE 15:47:50 73° ENE visible
17 Feb 13.6 17:50:05 10° WNW 18:00:26 33° W 18:00:26 33° W visible
18 Feb 13.0 13:19:29 10° WNW 13:36:31 52° NNE 13:53:46 21° E visible
18 Feb 12.6 15:43:24 10° WNW 16:05:41 87° NNE 16:06:22 85° ENE visible
18 Feb 13.8 18:10:49 10° WNW 18:18:58 26° W 18:18:58 26° W visible
19 Feb 12.9 13:39:16 10° NW 13:57:07 58° NNE 14:12:22 27° E visible
19 Feb 12.7 16:03:15 10° WNW 16:24:59 81° WSW 16:24:59 81° WSW visible
19 Feb 14.0 18:32:08 10° WNW 18:37:36 19° W 18:37:36 19° W visible
20 Feb 12.8 13:58:57 10° NW 14:17:33 65° NNE 14:31:05 34° E visible
20 Feb 12.8 16:23:13 10° WNW 16:43:42 68° WSW 16:43:42 68° WSW visible
20 Feb 14.2 18:54:17 10° W 18:56:20 13° W 18:56:20 13° W visible
21 Feb 12.7 14:18:35 10° NW 14:37:50 75° NNE 14:49:54 40° ESE visible
21 Feb 13.0 16:43:25 10° WNW 17:02:32 55° WSW 17:02:32 55° WSW visible
22 Feb 12.7 14:38:13 10° WNW 14:57:57 86° NNE 15:08:50 45° ESE visible
22 Feb 13.3 17:03:56 10° WNW 17:21:29 44° WSW 17:21:29 44° WSW visible
23 Feb 12.8 12:35:24 10° NW 12:50:17 55° NNE 13:12:48 10° E visible
23 Feb 12.7 14:57:54 10° WNW 15:17:57 82° SW 15:27:54 48° SE visible
23 Feb 13.5 17:24:58 10° W 17:40:33 35° WSW 17:40:33 35° WSW visible
24 Feb 12.7 12:54:56 10° NW 13:10:31 63° NNE 13:33:44 10° ESE visible
24 Feb 12.9 15:17:43 10° WNW 15:37:51 70° SW 15:47:05 47° SSE visible
24 Feb 13.7 17:46:45 10° W 17:59:45 26° WSW 17:59:45 26° WSW visible
25 Feb 12.7 13:14:25 10° NW 13:30:37 73° NNE 13:53:43 11° ESE visible
25 Feb 13.0 15:37:44 10° WNW 15:57:42 58° SW 16:06:24 44° S visible
25 Feb 14.0 18:09:44 10° W 18:19:05 19° WSW 18:19:05 19° WSW visible
